Torna al catalogo

FREGAT DEB

LostUNKNOWN
NORAD 46007·DEBRIS·🇷🇺 Russia

Lanciato Jul 18, 2011 da Baikonur Cosmodrome

Loading…

Prossimi Passaggi (prossime 24 ore)

TLE

ObsoletoSource: Space-Track

Epoca: Mar 21, 2021, 16:41 UTC

1 46007U 11037HJ  21080.69514157 -.00050679  00000-0 -19342+0 0  9995
2 46007  50.9375 203.2360 1989720 107.7298 274.9274 10.16334945 23178

Traccia FREGAT DEB in tempo reale con AllMySat

Download on the App Store